When you browse on this site, cookies collect data to enhance your experience and personalize the content and advertising you see.
Visit our Privacy Policy to learn more. By continuing to use the site, you agree to this use of cookies and data.

Hourly Weather Dobele

Today, 11 July, Saturday

Time Temperature Precipitation Wind Pressure Humidity
00:00 +16°C° 0.4 mm 3 mps 749 mmHg 97%
01:00 +16°C° 0.4 mm 3 mps 749 mmHg 97%
02:00 +17°C° 0 mm 4 mps 749 mmHg 97%
03:00 +15°C° 0.1 mm 5 mps 749 mmHg 94%
04:00 +14°C° 0.1 mm 6 mps 749 mmHg 92%
05:00 +13°C° 0.1 mm 8 mps 749 mmHg 89%
06:00 +13°C° 0 mm 8 mps 750 mmHg 83%
07:00 +13°C° 0 mm 8 mps 751 mmHg 77%
08:00 +13°C° 0 mm 8 mps 752 mmHg 71%
09:00 +15°C° 0 mm 8 mps 753 mmHg 66%
10:00 +16°C° 0 mm 8 mps 754 mmHg 61%
11:00 +17°C° 0 mm 8 mps 754 mmHg 55%
12:00 +18°C° 0 mm 7 mps 755 mmHg 55%
13:00 +18°C° 0 mm 7 mps 756 mmHg 54%
14:00 +20°C° 0 mm 7 mps 757 mmHg 54%
15:00 +19°C° 0 mm 6 mps 757 mmHg 56%
16:00 +19°C° 0 mm 6 mps 757 mmHg 59%
17:00 +17°C° 0 mm 5 mps 757 mmHg 61%
18:00 +16°C° 0 mm 5 mps 758 mmHg 67%
19:00 +15°C° 0 mm 4 mps 758 mmHg 73%
20:00 +14°C° 0 mm 3 mps 758 mmHg 78%
21:00 +13°C° 0 mm 3 mps 758 mmHg 83%
22:00 +12°C° 0 mm 3 mps 758 mmHg 88%
23:00 +12°C° 0 mm 2 mps 759 mmHg 93%

Tomorrow, 12 July, Sunday

Time Temperature Precipitation Wind Pressure Humidity
00:00 +12°C° 0 mm 2 mps 759 mmHg 93%
01:00 +10°C° 0 mm 3 mps 759 mmHg 94%
02:00 +10°C° 0 mm 3 mps 759 mmHg 94%
03:00 +10°C° 0 mm 3 mps 759 mmHg 94%
04:00 +10°C° 0 mm 3 mps 758 mmHg 94%
05:00 +10°C° 0 mm 3 mps 758 mmHg 94%
06:00 +13°C° 0 mm 2 mps 758 mmHg 88%
07:00 +15°C° 0 mm 2 mps 759 mmHg 82%
08:00 +16°C° 0 mm 2 mps 759 mmHg 76%
09:00 +17°C° 0.1 mm 3 mps 759 mmHg 70%
10:00 +18°C° 0.1 mm 3 mps 759 mmHg 64%
11:00 +20°C° 0.1 mm 3 mps 759 mmHg 58%
12:00 +20°C° 0.2 mm 3 mps 759 mmHg 58%
13:00 +20°C° 0.2 mm 4 mps 759 mmHg 59%
14:00 +20°C° 0.2 mm 4 mps 759 mmHg 59%
15:00 +20°C° 0.2 mm 4 mps 759 mmHg 59%
16:00 +19°C° 0.2 mm 4 mps 759 mmHg 60%
17:00 +19°C° 0.2 mm 5 mps 759 mmHg 60%
18:00 +18°C° 0 mm 4 mps 759 mmHg 66%
19:00 +16°C° 0 mm 3 mps 759 mmHg 71%
20:00 +14°C° 0 mm 3 mps 759 mmHg 77%
21:00 +13°C° 0 mm 3 mps 759 mmHg 83%
22:00 +12°C° 0 mm 2 mps 759 mmHg 88%
23:00 +10°C° 0 mm 2 mps 759 mmHg 94%

Day after tomorrow, 13 July, Monday

Time Temperature Precipitation Wind Pressure Humidity
00:00 +9°C° 0 mm 2 mps 759 mmHg 95%
01:00 +9°C° 0 mm 2 mps 758 mmHg 95%
02:00 +9°C° 0 mm 2 mps 758 mmHg 96%
03:00 +9°C° 0 mm 2 mps 758 mmHg 96%
04:00 +9°C° 0 mm 2 mps 758 mmHg 95%
05:00 +9°C° 0 mm 2 mps 758 mmHg 95%
06:00 +12°C° 0 mm 2 mps 758 mmHg 88%
07:00 +14°C° 0 mm 2 mps 758 mmHg 81%
08:00 +16°C° 0 mm 2 mps 758 mmHg 74%
09:00 +18°C° 0.1 mm 2 mps 758 mmHg 69%
10:00 +19°C° 0.1 mm 2 mps 758 mmHg 63%
11:00 +20°C° 0.1 mm 2 mps 758 mmHg 57%
12:00 +20°C° 0.3 mm 3 mps 758 mmHg 59%
13:00 +20°C° 0.3 mm 3 mps 758 mmHg 61%
14:00 +20°C° 0.3 mm 3 mps 758 mmHg 64%
15:00 +20°C° 0.5 mm 3 mps 757 mmHg 67%
16:00 +20°C° 0.5 mm 3 mps 757 mmHg 70%
17:00 +19°C° 0.5 mm 3 mps 757 mmHg 73%
18:00 +18°C° 0.1 mm 2 mps 757 mmHg 77%
19:00 +17°C° 0.1 mm 2 mps 757 mmHg 80%
20:00 +16°C° 0.1 mm 2 mps 757 mmHg 84%
21:00 +15°C° 0 mm 2 mps 757 mmHg 87%
22:00 +13°C° 0 mm 2 mps 757 mmHg 90%
23:00 +12°C° 0 mm 2 mps 757 mmHg 93%

14 July, Tuesday

Time Temperature Precipitation Wind Pressure Humidity
00:00 +12°C° 0 mm 1 mps 757 mmHg 94%
01:00 +11°C° 0 mm 1 mps 757 mmHg 95%
02:00 +11°C° 0 mm 1 mps 757 mmHg 95%
03:00 +11°C° 0 mm 1 mps 757 mmHg 95%
04:00 +11°C° 0 mm 1 mps 757 mmHg 95%
05:00 +11°C° 0 mm 1 mps 757 mmHg 95%
06:00 +13°C° 0 mm 1 mps 758 mmHg 90%
07:00 +14°C° 0 mm 1 mps 758 mmHg 85%
08:00 +16°C° 0 mm 1 mps 758 mmHg 79%
09:00 +19°C° 0 mm 1 mps 758 mmHg 73%
10:00 +20°C° 0 mm 1 mps 758 mmHg 66%
11:00 +21°C° 0 mm 1 mps 758 mmHg 59%
12:00 +22°C° 0.1 mm 1 mps 758 mmHg 59%
13:00 +22°C° 0.1 mm 1 mps 758 mmHg 59%
14:00 +22°C° 0.1 mm 1 mps 758 mmHg 58%
15:00 +21°C° 0.4 mm 1 mps 758 mmHg 67%
16:00 +20°C° 0.4 mm 1 mps 757 mmHg 75%
17:00 +19°C° 0.4 mm 2 mps 757 mmHg 84%
18:00 +19°C° 0.1 mm 1 mps 757 mmHg 85%
19:00 +19°C° 0.1 mm 1 mps 757 mmHg 87%
20:00 +18°C° 0.1 mm 1 mps 757 mmHg 88%
21:00 +16°C° 0 mm 1 mps 757 mmHg 90%
22:00 +15°C° 0 mm 1 mps 757 mmHg 92%
23:00 +14°C° 0 mm 1 mps 757 mmHg 94%

15 July, Wednesday

Time Temperature Precipitation Wind Pressure Humidity
00:00 +13°C° 0 mm 1 mps 757 mmHg 95%
01:00 +13°C° 0 mm 1 mps 757 mmHg 95%
02:00 +12°C° 0 mm 1 mps 757 mmHg 95%
03:00 +12°C° 0 mm 1 mps 757 mmHg 95%
04:00 +12°C° 0 mm 1 mps 757 mmHg 95%
05:00 +12°C° 0 mm 1 mps 757 mmHg 95%
06:00 +13°C° 0 mm 1 mps 757 mmHg 91%
07:00 +15°C° 0 mm 1 mps 757 mmHg 87%
08:00 +16°C° 0 mm 1 mps 757 mmHg 82%
09:00 +19°C° 0 mm 1 mps 757 mmHg 75%
10:00 +19°C° 0 mm 2 mps 757 mmHg 68%
11:00 +21°C° 0 mm 2 mps 757 mmHg 61%
12:00 +23°C° 0.1 mm 2 mps 756 mmHg 59%
13:00 +23°C° 0.1 mm 2 mps 756 mmHg 57%
14:00 +24°C° 0.1 mm 2 mps 756 mmHg 54%
15:00 +24°C° 0 mm 2 mps 756 mmHg 56%
16:00 +24°C° 0 mm 2 mps 755 mmHg 57%
17:00 +24°C° 0 mm 2 mps 755 mmHg 58%
18:00 +21°C° 0.2 mm 2 mps 755 mmHg 67%
19:00 +20°C° 0.2 mm 2 mps 755 mmHg 76%
20:00 +19°C° 0.2 mm 2 mps 754 mmHg 85%
21:00 +18°C° 0 mm 2 mps 754 mmHg 88%
22:00 +17°C° 0 mm 2 mps 754 mmHg 91%
23:00 +16°C° 0 mm 2 mps 754 mmHg 94%

16 July, Thursday

Time Temperature Precipitation Wind Pressure Humidity
00:00 +15°C° 0 mm 2 mps 753 mmHg 94%
01:00 +14°C° 0 mm 3 mps 753 mmHg 94%
02:00 +13°C° 0 mm 3 mps 753 mmHg 94%
03:00 +13°C° 0 mm 3 mps 752 mmHg 93%
04:00 +14°C° 0 mm 3 mps 752 mmHg 92%
05:00 +14°C° 0 mm 3 mps 751 mmHg 92%
06:00 +14°C° 0.2 mm 3 mps 751 mmHg 90%
07:00 +16°C° 0.2 mm 3 mps 751 mmHg 89%
08:00 +17°C° 0.2 mm 4 mps 751 mmHg 88%
09:00 +17°C° 1 mm 4 mps 751 mmHg 90%
10:00 +15°C° 1 mm 4 mps 751 mmHg 91%
11:00 +15°C° 1 mm 4 mps 751 mmHg 93%
12:00 +16°C° 0.4 mm 3 mps 751 mmHg 90%
13:00 +17°C° 0.4 mm 2 mps 751 mmHg 86%
14:00 +18°C° 0.4 mm 2 mps 751 mmHg 83%
15:00 +18°C° 0.4 mm 2 mps 751 mmHg 83%
16:00 +18°C° 0.4 mm 2 mps 751 mmHg 83%
17:00 +19°C° 0.4 mm 1 mps 751 mmHg 83%
18:00 +17°C° 0.2 mm 2 mps 751 mmHg 85%
19:00 +16°C° 0.2 mm 2 mps 751 mmHg 86%
20:00 +16°C° 0.2 mm 2 mps 750 mmHg 88%
21:00 +14°C° 0 mm 2 mps 750 mmHg 91%
22:00 +13°C° 0 mm 2 mps 750 mmHg 94%
23:00 +12°C° 0 mm 2 mps 750 mmHg 96%
Show more